#timestamp,LO_Frequency,Hit,StdDev 
1508785215.7,286047003.7,N
1508785235.5,286047005.5,N
1508785255.4,286047004.9,N
1508785275.2,286047010.8,Y
1508785295.0,286047009.1,P
1508785295.9,286047009.1,N
1508785315.8,286047006.1,N
1508785335.6,286047007.5,N
1508785355.4,286047007.0,N
1508785375.3,286047003.5,N
1508785395.1,286047002.9,N
1508785415.8,286047004.1,N
1508785435.7,286047002.8,N
1508785455.5,286047000.6,N
1508785475.3,286047000.4,N
1508785495.2,286046999.2,N
1508785515.0,286046997.7,N
1508785515.9,286046997.7,N
1508785535.7,286046997.0,N
1508785555.6,286046997.0,N
1508785575.4,286047000.7,N
1508785595.2,286046998.8,N
1508785615.1,286047001.9,N
1508785616.0,286047001.9,N
1508785635.8,286047003.9,N
1508785655.6,286047009.1,N
1508785675.5,286047005.2,N
1508785695.3,286047002.6,N
1508785715.1,286046999.9,N
1508785735.9,286047000.6,N
1508785755.7,286046997.9,N
1508785775.6,286046993.4,N
1508785795.4,286046995.6,N
1508785815.2,286046996.7,N
1508785835.1,286046997.0,N
1508785836.0,286046997.0,N
1508785855.8,286046997.4,N
1508785875.6,286046996.0,N
1508785895.5,286046996.1,N
1508785915.3,286046997.6,N
1508785935.1,286046995.8,N
1508785955.9,286046993.3,N
1508785975.7,286046997.7,N
1508785995.5,286046998.7,N
1508786015.4,286046998.7,N
1508786035.2,286046997.9,N
1508786055.0,286046993.5,N
1508786055.9,286046993.5,N
1508786075.8,286046996.3,N
1508786095.6,286046992.6,N
1508786115.4,286046989.1,N
1508786135.3,286046987.6,Y
1508786155.1,286046989.4,P
1508786175.8,286046992.5,N
1508786195.7,286046994.6,N
1508786215.5,286046996.7,N
1508786235.4,286046997.4,N
1508786255.2,286046997.6,N
1508786275.0,286046997.6,N
1508786275.9,286046997.6,N
1508786295.8,286046996.2,N
1508786315.6,286046995.6,N
1508786335.4,286046997.1,N
1508786355.3,286046994.9,N
1508786375.1,286046998.0,N
1508786376.0,286046998.0,N
1508786395.8,286046997.9,N
1508786415.7,286046998.0,N
1508786435.5,286046999.7,N
1508786455.3,286047002.4,N
1508786475.2,286047001.5,N
1508786495.9,286047002.2,N
1508786515.7,286046998.3,N
1508786535.6,286047002.0,N
1508786555.4,286047001.4,N
1508786575.2,286046998.3,N
1508786595.1,286046999.7,N
1508786596.0,286046999.7,N
1508786615.8,286047002.2,N
1508786635.6,286047002.6,N
1508786655.5,286047002.7,N
1508786675.3,286047002.5,N
1508786695.1,286047002.1,N
1508786715.9,286047001.6,N
1508786735.7,286046998.5,N
1508786755.6,286046997.8,N
1508786775.4,286046996.1,N
1508786795.2,286046996.0,N
1508786815.1,286046997.8,N
1508786816.0,286046997.8,N
1508786835.8,286046997.5,N
1508786855.6,286046996.3,N
1508786875.5,286046995.4,N
1508786895.3,286046999.2,N
1508786915.1,286047000.8,N
1508786935.9,286047002.3,N
1508786955.7,286047000.7,N
1508786975.5,286047000.9,N
1508786995.4,286046994.9,N
1508787015.2,286047003.1,N
1508787035.0,286047003.7,N
1508787035.9,286047003.7,N
1508787055.8,286047003.6,N
1508787075.6,286047002.9,N
1508787095.4,286047001.4,N
1508787115.3,286047002.0,N
1508787135.1,286047005.5,N
1508787155.9,286047003.3,N
1508787175.7,286047004.8,N
1508787195.5,286047007.1,N
1508787215.4,286047008.0,N
1508787235.2,286047004.7,N
1508787255.0,286047005.9,N
1508787255.9,286047005.9,N
1508787275.8,286047005.0,N
1508787295.6,286047009.4,N
1508787315.4,286047010.6,N
1508787335.3,286047007.6,N
1508787355.1,286047003.3,N
1508787356.0,286047003.3,N
1508787375.8,286047005.5,N
1508787395.7,286047003.2,N
1508787415.5,286047007.1,N
1508787435.3,286047005.6,N
1508787455.2,286047002.9,N
1508787475.9,286047000.9,N
1508787495.7,286047005.9,N
1508787515.6,286047005.8,N
1508787535.4,286047003.8,N
1508787555.2,286046999.8,N
1508787575.1,286047000.0,N
1508787576.0,286047000.0,N
1508787595.8,286047003.8,N
1508787615.7,286047004.2,N
1508787635.5,286047001.3,N
1508787655.3,286047002.4,N
1508787675.2,286047004.0,N
1508787695.9,286047009.2,Y
1508787715.7,286047000.9,P
1508787735.6,286046998.8,N
1508787755.4,286046999.0,N
1508787775.2,286046998.9,N
1508787795.1,286046995.0,N
1508787796.0,286046995.0,N
1508787815.8,286046996.1,N
1508787835.6,286046997.3,N
1508787855.5,286046999.5,N
1508787875.3,286046997.7,N
1508787895.1,286046996.5,N
1508787915.9,286046997.9,N
1508787935.7,286046992.4,Y
1508787955.6,286046991.6,P
1508787975.4,286046988.9,P
1508787995.2,286046988.0,P
1508788015.1,286046986.6,Y
1508788016.0,286046986.6,P
1508788035.8,286046994.3,N
1508788055.6,286046990.6,N
1508788075.5,286046987.8,Y
1508788095.3,286046995.7,P
1508788115.2,286046993.5,N
1508788135.9,286046991.8,P
1508788155.7,286046994.7,N
1508788175.6,286046990.3,Y
1508788195.4,286046995.3,P
1508788215.2,286046996.0,P
1508788235.1,286046993.5,P
1508788236.0,286046993.5,Y
1508788255.8,286046997.4,P
1508788275.6,286046994.1,P
1508788295.5,286046992.9,P
1508788315.3,286046994.5,Y
1508788335.2,286046996.7,P
1508788355.9,286046996.5,P
1508788375.7,286046997.0,P
1508788395.6,286046996.2,Y
1508788415.4,286046999.3,P
1508788435.2,286046995.0,P
1508788455.1,286046997.2,N
1508788456.0,286046997.2,N
1508788475.8,286046996.8,N
1508788495.7,286046997.6,N
1508788515.5,286046996.8,N
1508788535.3,286047001.1,N
1508788555.2,286046999.8,N
1508788575.9,286047000.1,N
1508788595.7,286047001.0,N
1508788615.6,286046998.8,N
1508788635.4,286046998.2,N
1508788655.2,286047000.8,N
1508788675.1,286046998.1,N
1508788676.0,286046998.1,N
1508788695.8,286047001.9,N
1508788715.6,286047002.1,N
1508788735.5,286047004.3,N
1508788755.3,286047004.6,N
1508788775.1,286047007.4,N
1508788795.9,286047009.0,Y
